Weather in Baicheng

China     41°47′44″N   81°52′24″E
temp.,
°C
wind,
m/s
gust,
m/s
humid.,
%
clouds,
%
prec.,
mm/h
press.,
hPa
HPBL,
m
6 march, sat
sat600:00+5nw3467100 0.2 1027305
03:00+5nnw3338100 0.0 102658
06:00+4n333997 0.0 102634
09:00+5nw124395 0.0 1024141
12:00+6nw225797 0.0 1021945
15:00+8nnw124595 0.0 10181473
18:00+8nne335091 0.1 1017458
21:00+6n335565 0.0 101853
7 march, sun
sun700:00+4nnw124864 0.0 101822
03:00+2nw115248 0.0 101622
06:00+1nnw015461 0.0 101622
09:00+5nnw1136100 0.0 101685
12:00+8ssw1235100 0.0 1015978
15:00+10w2332100 0.0 10131769
18:00+10wsw3435100 0.0 1014301
21:00+7wnw2343100 0.0 101723
8 march, mon
mon800:00+5nw1247100 0.0 101722
03:00+4nw234183 0.0 101722
06:00+3nw124442 0.0 101822
09:00+6nnw22320 0.0 1018102
12:00+9sw23280 0.0 10161040
15:00+12wsw33260 0.0 10141793
18:00+11w22320 0.0 101657
21:00+8wnw12420 0.0 101922
9 march, tue
tue900:00+6nnw12450 0.0 102122
03:00+4nnw114412 0.0 102022
06:00+3n114314 0.0 102122
09:00+8ne113422 0.0 102156
12:00+11ene012823 0.0 1019793
15:00+12sw12250 0.0 10171966
18:00+12sse01300 0.0 101731
21:00+9wnw223724 0.0 101922
10 march, wed
wed1000:00+7nw343813 0.0 101934
03:00+5nw33403 0.0 101725
06:00+4nw124535 0.0 101722
09:00+7nnw113497 0.0 101688
12:00+10s112863 0.0 10131155
15:00+12ssw122695 0.0 10101907
18:00+12sw122997 0.0 1010387
21:00+9nnw2339100 0.0 101328